Flag for Canada Weather past 2 weeks in Surrey, British Columbia, Canada

Now
85 °F

Warm.


Feels Like: 85 °F
Forecast: 58 / 80 °F
Wind: 3 mph from Southwest

Location: P. Meadows Coastal Station

Current Time: Jul 28, 2014 at 6:58:58 PM

Latest Report: Jul 28, 2014 at 6:00 PM


Visibility: N/A

Pressure: 30.05 "Hg

Humidity: 40%

Dew point: 58 °F

Location of SurreyLocation

Historic Weather in Surrey — Graph

°F

Surrey temperature yesterday

Maximum temperature yesterday: 83 °F (at 5:00 PM)
Minimum temperature yesterday: 53 °F (at 6:00 AM)
Average temperature yesterday: 69 °F

Past Weeks' High & Low Weather Summary

 TemperatureHumidityPressure
High91 °F (Jul 13, 6:00 PM)97% (Jul 27, 6:00 AM)30.21 "Hg (Jul 27, 6:00 AM)
Low52 °F (Jul 22, 5:00 AM)31% (Jul 28, 5:00 PM)29.89 "Hg (Jul 16, 9:00 PM)
Average66 °F70%30.04 "Hg
* Reported Jul 13 6:00 PM — Jul 28 6:00 PM, Surrey, Weather by CustomWeather, © 2014

Note: Actual official high and low records may vary slightly from our data, if they occured in-between our weather recording intervals... More about our weather records

Advertising

Surrey weather history for previous 24 hours

 ConditionsComfort  
Time TempWeatherWind HumidityBarometerVisibility
6:00 PM
Jul 28
85 °FWarm.3 mph40%30.05 "HgN/A
5:00 PM87 °FPleasantly warm.5 mph31%30.06 "HgN/A
4:00 PM86 °FPleasantly warm.5 mph39%30.06 "HgN/A
3:00 PM85 °FPleasantly warm.5 mph36%30.08 "HgN/A
2:00 PM84 °FWarm.6 mph41%30.09 "HgN/A
1:00 PM82 °FWarm.5 mph43%30.10 "HgN/A
12:00 PM79 °FWarm.2 mph48%30.11 "HgN/A
11:00 AM76 °FMild.2 mph57%30.11 "HgN/A
10:00 AM72 °FMild.2 mph61%30.12 "HgN/A
9:00 AM67 °FMild.2 mph71%30.13 "HgN/A
8:00 AM66 °FMild.No wind80%30.13 "HgN/A
7:00 AM60 °FCool.No wind92%30.13 "HgN/A
6:00 AM55 °FCool.No wind96%30.12 "HgN/A
5:00 AM55 °FCool.No wind95%30.11 "HgN/A
4:00 AM55 °FCool.No wind94%30.11 "HgN/A
3:00 AM59 °FCool.No wind93%30.10 "HgN/A
2:00 AM60 °FCool.1 mph92%30.10 "HgN/A
1:00 AM60 °FCool.1 mph94%30.10 "HgN/A
12:00 AM63 °FMild.No wind86%30.09 "HgN/A
11:00 PM
Jul 27
65 °FMild.No wind81%30.09 "HgN/A
10:00 PM67 °FMild.1 mph75%30.08 "HgN/A
9:00 PM73 °FMild.3 mph61%30.07 "HgN/A
8:00 PM80 °FPleasantly warm.3 mph38%30.06 "HgN/A
7:00 PM82 °FPleasantly warm.5 mph35%30.07 "HgN/A
6:00 PM83 °FPleasantly warm.7 mph35%30.08 "HgN/A
Weather by CustomWeather, © 2014

See weather overviewHow to use our weather pages